Weather History for Colby, KS

Change the Weather History Date:

Wednesday, December 18, 2013

  Actual Average (KGLD) Record (KGLD)
Temperature  
Mean Temperature 52 °F 29 °F  
Max Temperature 71 °F 42 °F 76 °F (1979)
Min Temperature 32 °F 17 °F -15 °F (1924)
Degree Days  
Heating Degree Days 14 36  
Month to date heating degree days 624  
Since 1 July heating degree days 1943  
Cooling Degree Days 0 0  
Month to date cooling degree days 0  
Year to date cooling degree days 941  
Growing Degree Days 2 (Base 50)    
Moisture  
Dew Point 24 °F    
Average Humidity 44    
Maximum Humidity 69    
Minimum Humidity 19    
Precipitation  
Precipitation 0.00 in 0.02 in 0.29 in (1973)
Month to date precipitation 0.28  
Year to date precipitation 19.48  
Snow  
Snow 0.00 in 0.20 in - ()
Month to date snowfall 3.1  
Since 1 July snowfall 10.3  
Snow Depth -    
Sea Level Pressure  
Sea Level Pressure 29.84 in    
Wind  
Wind Speed 9 mph (West)    
Max Wind Speed 17 mph    
Max Gust Speed -    
Visibility 10 miles    
Events      
T = Trace of Precipitation, MM = Missing Value Source: NWS Daily Summary

Daily Weather History Graph

Daily Weather History Graph

Search for Another Location

Airport:

Trip Planner

Search our weather history database for the weather conditions in past years. The results will help you decide how hot, cold, wet, or windy it might be!

Date:

Astronomy

Dec. 18, 2013 Rise Set
Actual Time 7:59 AM CST 5:22 PM CST
Civil Twilight 7:29 AM CST 5:53 PM CST
Nautical Twilight 6:55 AM CST 6:26 PM CST
Astronomical Twilight 6:22 AM CST 6:59 PM CST
Moon 6:55 PM CST (12/18) 8:40 AM CST (12/18)
Length of Visible Light 10h 23m
Length of Day
9h 23m
Full, 98% of the Moon is Illuminated
Dec 18
Full
Dec 25
Last Quarter
Jan 1
New
Jan 7
First Quarter
Jan 15
Full

Hourly Weather History & Observations

Time (CST) Temp. Windchill Dew Point Humidity Pressure Visibility Wind Dir Wind Speed Gust Speed Precip Events Conditions
12:15 AM 37.4 °F 27.8 °F 24.8 °F 60% 30.06 in 10.0 mi SSW 17.3 mph - N/A   Clear
12:35 AM 39.2 °F 30.8 °F 24.8 °F 56% 30.05 in 10.0 mi SSW 15.0 mph - N/A   Clear
12:55 AM 37.4 °F 28.9 °F 24.8 °F 60% 30.04 in 10.0 mi SSW 13.8 mph - N/A   Clear
1:15 AM 37.4 °F 29.3 °F 24.8 °F 60% 30.02 in 10.0 mi SW 12.7 mph - N/A   Clear
1:35 AM 37.4 °F 29.8 °F 24.8 °F 60% 30.02 in 10.0 mi SSW 11.5 mph - N/A   Clear
1:55 AM 33.8 °F 25.8 °F 23.0 °F 65% 30.01 in 10.0 mi SW 10.4 mph - N/A   Clear
2:15 AM 33.8 °F 27.0 °F 23.0 °F 65% 30.00 in 10.0 mi SW 8.1 mph - N/A   Clear
2:35 AM 32.0 °F 24.2 °F 23.0 °F 69% 29.99 in 10.0 mi SW 9.2 mph - N/A   Clear
2:55 AM 33.8 °F 26.4 °F 23.0 °F 65% 29.98 in 10.0 mi SW 9.2 mph - N/A   Clear
3:15 AM 32.0 °F 24.2 °F 23.0 °F 69% 29.98 in 10.0 mi SW 9.2 mph - N/A   Clear
3:35 AM 32.0 °F 25.6 °F 23.0 °F 69% 29.97 in 10.0 mi SW 6.9 mph - N/A   Clear
3:55 AM 32.0 °F 24.2 °F 23.0 °F 69% 29.96 in 10.0 mi SW 9.2 mph - N/A   Clear
4:15 AM 32.0 °F 24.2 °F 23.0 °F 69% 29.95 in 10.0 mi WSW 9.2 mph - N/A   Clear
4:35 AM 32.0 °F 23.6 °F 23.0 °F 69% 29.94 in 10.0 mi WSW 10.4 mph - N/A   Clear
4:55 AM 32.0 °F 24.2 °F 21.2 °F 64% 29.93 in 10.0 mi WSW 9.2 mph - N/A   Clear
5:15 AM 32.0 °F 24.2 °F 21.2 °F 64% 29.93 in 10.0 mi WSW 9.2 mph - N/A   Clear
5:35 AM 33.8 °F 24.8 °F 23.0 °F 65% 29.92 in 10.0 mi WSW 12.7 mph - N/A   Clear
5:55 AM 33.8 °F 25.8 °F 23.0 °F 65% 29.91 in 10.0 mi WSW 10.4 mph - N/A   Clear
6:15 AM 33.8 °F 26.4 °F 23.0 °F 65% 29.91 in 10.0 mi WSW 9.2 mph - N/A   Clear
6:35 AM 33.8 °F 26.4 °F 23.0 °F 65% 29.90 in 10.0 mi WSW 9.2 mph - N/A   Clear
6:55 AM 33.8 °F 25.8 °F 23.0 °F 65% 29.90 in 10.0 mi WSW 10.4 mph - N/A   Clear
7:15 AM 35.6 °F 28.6 °F 23.0 °F 60% 29.88 in 10.0 mi WSW 9.2 mph - N/A   Clear
7:35 AM 33.8 °F 25.8 °F 23.0 °F 65% 29.87 in 10.0 mi WSW 10.4 mph - N/A   Clear
7:55 AM 32.0 °F 24.2 °F 21.2 °F 64% 29.87 in 10.0 mi West 9.2 mph - N/A   Clear
8:15 AM 35.6 °F 27.5 °F 23.0 °F 60% 29.87 in 10.0 mi WNW 11.5 mph - N/A   Clear
8:35 AM 39.2 °F 32.5 °F 23.0 °F 52% 29.87 in 10.0 mi WNW 10.4 mph - N/A   Clear
8:55 AM 41.0 °F 34.7 °F 23.0 °F 49% 29.87 in 10.0 mi WNW 10.4 mph - N/A   Clear
9:15 AM 42.8 °F 38.0 °F 23.0 °F 46% 29.87 in 10.0 mi West 8.1 mph - N/A   Clear
9:35 AM 46.4 °F 42.4 °F 24.8 °F 43% 29.87 in 10.0 mi West 8.1 mph - N/A   Clear
9:55 AM 51.8 °F - 26.6 °F 38% 29.86 in 10.0 mi WNW 8.1 mph - N/A   Clear
10:15 AM 55.4 °F - 26.6 °F 33% 29.87 in 10.0 mi WNW 6.9 mph - N/A   Clear
10:35 AM 59.0 °F - 28.4 °F 31% 29.87 in 10.0 mi West 5.8 mph - N/A   Clear
10:55 AM 62.6 °F - 28.4 °F 27% 29.86 in 10.0 mi West 5.8 mph - N/A   Clear
11:15 AM 68.0 °F - 28.4 °F 23% 29.86 in 10.0 mi WNW 5.8 mph - N/A   Clear
11:35 AM 68.0 °F - 28.4 °F 23% 29.85 in 10.0 mi North 10.4 mph - N/A   Clear
11:55 AM 68.0 °F - 26.6 °F 21% 29.84 in 10.0 mi NNW 6.9 mph - N/A   Clear
12:15 PM 69.8 °F - 26.6 °F 20% 29.82 in 10.0 mi North 8.1 mph - N/A   Clear
12:35 PM 69.8 °F - 26.6 °F 20% 29.81 in 10.0 mi North 8.1 mph - N/A   Clear
12:55 PM 69.8 °F - 26.6 °F 20% 29.80 in 10.0 mi NNW 6.9 mph - N/A   Clear
1:15 PM 71.6 °F - 26.6 °F 19% 29.79 in 10.0 mi North 5.8 mph - N/A   Clear
1:35 PM 71.6 °F - 26.6 °F 19% 29.77 in 10.0 mi Calm Calm - N/A   Clear
1:55 PM 71.6 °F - 26.6 °F 19% 29.76 in 10.0 mi Calm Calm - N/A   Clear
2:15 PM 71.6 °F - 26.6 °F 19% 29.76 in 10.0 mi Calm Calm - N/A   Clear
2:35 PM 71.6 °F - 26.6 °F 19% 29.75 in 10.0 mi WNW 4.6 mph - N/A   Clear
2:55 PM 71.6 °F - 26.6 °F 19% 29.75 in 10.0 mi Calm Calm - N/A   Clear
3:15 PM 71.6 °F - 26.6 °F 19% 29.74 in 10.0 mi Calm Calm - N/A   Clear
3:35 PM 71.6 °F - 26.6 °F 19% 29.74 in 10.0 mi Calm Calm - N/A   Clear
3:55 PM 69.8 °F - 26.6 °F 20% 29.74 in 10.0 mi Calm Calm - N/A   Clear
4:15 PM 69.8 °F - 26.6 °F 20% 29.73 in 10.0 mi ENE 4.6 mph - N/A   Clear
4:35 PM 62.6 °F - 26.6 °F 26% 29.73 in 10.0 mi East 8.1 mph - N/A   Clear
4:55 PM 59.0 °F - 24.8 °F 27% 29.74 in 10.0 mi East 8.1 mph - N/A   Clear
5:15 PM 53.6 °F - 23.0 °F 30% 29.74 in 10.0 mi SE 5.8 mph - N/A   Clear
5:35 PM 55.4 °F - 23.0 °F 29% 29.73 in 10.0 mi ESE 4.6 mph - N/A   Clear
5:55 PM 55.4 °F - 23.0 °F 29% 29.74 in 10.0 mi ESE 4.6 mph - N/A   Clear
6:15 PM 55.4 °F - 23.0 °F 29% 29.74 in 10.0 mi ESE 3.5 mph - N/A   Clear
6:35 PM 53.6 °F - 23.0 °F 30% 29.74 in 10.0 mi SE 4.6 mph - N/A   Clear
6:55 PM 51.8 °F - 23.0 °F 33% 29.74 in 10.0 mi Calm Calm - N/A   Clear
7:15 PM 50.0 °F - 21.2 °F 32% 29.73 in 10.0 mi Calm Calm - N/A   Clear
7:35 PM 48.2 °F - 23.0 °F 37% 29.73 in 10.0 mi Calm Calm - N/A   Clear
7:55 PM 46.4 °F 45.2 °F 21.2 °F 37% 29.74 in 10.0 mi SW 3.5 mph - N/A   Clear
8:15 PM 41.0 °F 38.0 °F 19.4 °F 42% 29.74 in 10.0 mi SW 4.6 mph - N/A   Clear
8:35 PM 33.8 °F 27.7 °F 17.6 °F 52% 29.74 in 10.0 mi WSW 6.9 mph - N/A   Clear
8:55 PM 35.6 °F 29.2 °F 19.4 °F 52% 29.74 in 10.0 mi West 8.1 mph - N/A   Clear
9:15 PM 37.4 °F 31.4 °F 19.4 °F 48% 29.74 in 10.0 mi West 8.1 mph - N/A   Clear
9:35 PM 35.6 °F 28.6 °F 21.2 °F 56% 29.74 in 10.0 mi West 9.2 mph - N/A   Clear
9:55 PM 35.6 °F 28.6 °F 21.2 °F 56% 29.73 in 10.0 mi West 9.2 mph - N/A   Clear
10:15 PM 35.6 °F 29.2 °F 21.2 °F 56% 29.73 in 10.0 mi West 8.1 mph - N/A   Clear
10:35 PM 35.6 °F 28.6 °F 21.2 °F 56% 29.73 in 10.0 mi WNW 9.2 mph - N/A   Clear
10:55 PM 39.2 °F 32.5 °F 21.2 °F 49% 29.72 in 10.0 mi WNW 10.4 mph - N/A   Clear
11:15 PM 37.4 °F 30.3 °F 21.2 °F 52% 29.73 in 10.0 mi NW 10.4 mph - N/A   Clear
11:35 PM 42.8 °F 36.2 °F 21.2 °F 42% 29.72 in 10.0 mi NNW 12.7 mph - N/A   Clear
11:55 PM 42.8 °F 37.5 °F 21.2 °F 42% 29.71 in 10.0 mi NNW 9.2 mph - N/A   Clear